Regional Weather Roundup
Issued by NWS

Home | Current Version | Previous Version | Graphics & Text | Print | Product List | Glossary On
Versions: 1 2 3 4 5 6 7 8 9 10 11 12 13 14 15 16 17 18 19 20 21 22 23 24 25 26 27 28 29 30 31 32 33 34 35 36 37 38 39 40 41 42 43 44 45 46 47 48 49 50
000
ASUS45 KPSR 261510
RWRAZ

ARIZONA HOURLY REGIONAL WEATHER ROUNDUP
NATIONAL WEATHER SERVICE PHOENIX AZ
800 AM MST MON JUN 26 2017

NOTE: FAIR INDICATES FEW OR NO CLOUDS BELOW 12,000 FEET WITH NO
SIGNIFICANT WEATHER AND/OR OBSTRUCTIONS TO VISIBILITY.

AZZ001>003-036-261600-
NORTHWEST ARIZONA

CITY           SKY/WX    TMP DP  RH WIND       PRES   REMARKS
BULLHEAD CITY  SUNNY    102  25   6 CALM      29.85S
KINGMAN        SUNNY     91  27  10 SW21      30.07R
$$

AZZ004>008-015-016-018-261600-
NORTH CENTRAL ARIZONA

CITY           SKY/WX    TMP DP  RH WIND       PRES   REMARKS
GRAND CANYON   SUNNY     76  39  26 S9        30.34R
PRESCOTT       SUNNY     80  43  26 SE12      30.23R
FLAGSTAFF      SUNNY     71  44  37 SW13      30.38S
PAYSON         SUNNY     77  45  31 VRB3      30.29S
PAGE           SUNNY     83  35  18 CALM      30.12R
$$

AZZ009>014-017-261600-
NORTHEAST ARIZONA

CITY           SKY/WX    TMP DP  RH WIND       PRES   REMARKS
WINSLOW        SUNNY     78  46  32 E10       30.21S
SAINT JOHNS    MOSUNNY   74  46  36 CALM      30.27S
WINDOW ROCK    SUNNY     70  41  34 CALM      30.36S
SHOW LOW       SUNNY     72  45  37 S18G24    30.34S
$$

AZZ540-542>544-546-548-261600-
GREATER PHOENIX AREA

CITY           SKY/WX    TMP DP  RH WIND       PRES   REMARKS
PHOENIX        MOSUNNY   93  60  33 N6        29.94R
BUCKEYE        SUNNY     91  61  35 CALM      29.95R
GLENDALE       MOSUNNY   93  63  36 S9        29.96R
LUKE AFB       MOSUNNY   93  61  34 S9        29.94R
DEER VALLEY    SUNNY     92  59  33 SW9       29.96R
SCOTTSDALE     SUNNY     93  58  30 W5        29.99R
MESA-FALCON    MOSUNNY   93  55  27 S8        29.96R
MESA-GATEWAY   SUNNY     91  57  31 SE10      29.97S
CHANDLER       SUNNY     93  57  29 SW6       29.96R
$$

AZZ539-553-261600-
SOUTHWEST MARICOPA COUNTY AND PINAL COUNTY

CITY           SKY/WX    TMP DP  RH WIND       PRES   REMARKS
CASA GRANDE    SUNNY     94  61  33 S6        29.98R
GILA BEND      SUNNY     93  61  34 CALM      29.92R
$$

AZZ503-504-507>509-261600-
SOUTHEAST ARIZONA

CITY           SKY/WX    TMP DP  RH WIND       PRES   REMARKS
TUCSON         SUNNY     88  54  31 E7        30.09S
DAVIS-MONTHAN  SUNNY     88  54  30 SE7       30.07S
NOGALES        SUNNY     81  57  43 CALM      30.17F
SIERRA VISTA   SUNNY     78  51  38 NW5       30.24S
DOUGLAS        SUNNY     77  55  46 N7        30.20R
SAFFORD        SUNNY     77  61  57 CALM      30.14R
$$

AZZ532-261600-
SOUTHWEST ARIZONA

CITY           SKY/WX    TMP DP  RH WIND       PRES   REMARKS
YUMA           MOSUNNY   91  67  44 SE10      29.87R
$$

CAZ041-043-047-048-061-525>527-560>570-261600-
SOUTHERN CALIFORNIA

CITY           SKY/WX    TMP DP  RH WIND       PRES   REMARKS
DOWNTOWN L.A.  SUNNY     76  63  64 CALM      29.90R
L.A. AIRPORT   MOSUNNY   73  61  65 CALM      29.90R
SAN DIEGO      MOSUNNY   70  63  78 NW5       29.92R
BURBANK        SUNNY     80  51  36 CALM      29.92R
ONTARIO        SUNNY     82  57  42 CALM      29.93R
RIVERSIDE      SUNNY     79  55  43 NE3       29.92S
PALM SPRINGS   SUNNY     87  68  52 E10       29.90R
EL CENTRO NAS  MOSUNNY   83  72  69 E7        29.86R
IMPERIAL       SUNNY     84  73  69 SE10      29.84R
BLYTHE         SUNNY     91  65  41 S15       29.87R
$$

NVZ020-UTZ003-261600-
SOUTHERN NEVADA-UTAH

CITY           SKY/WX    TMP DP  RH WIND       PRES   REMARKS
LAS VEGAS      SUNNY     95  18   6 SW12      29.91S
SALT LAKE CITY MOSUNNY   79  43  27 SE8       30.09F
$$

NMZ009-TXZ055-261600-
NEW MEXICO-WEST TEXAS

CITY           SKY/WX    TMP DP  RH WIND       PRES   REMARKS
ALBUQUERQUE    MOSUNNY   70  54  56 NW5       30.32S
EL PASO        PTSUNNY   74  64  71 E10       30.23R
$$


........................KEY........................
SKY/WX - SKY CONDITION/WEATHER
TMP    - TEMPERATURE IN FAHRENHEIT
DP     - DEW POINT IN FAHRENHEIT
RH     - RELATIVE HUMIDITY IN PERCENT
WIND   - DIRECTION AND SPEED IN MILES PER HOUR (MPH)
VRB    - VARIABLE WIND DIRECTION
PRES   - MEAN SEA LEVEL PRESSURE IN INCHES OF MERCURY
         F - FALLING PRESSURE   R - RISING PRESSURE
         S - STEADY PRESSURE
VSB    - VISIBILITY IN MILES
HX     - HEAT INDEX IN FAHRENHEIT
WCI    - WIND CHILL INDEX IN FAHRENHEIT
TC     - TEMPERATURE IN CELSIUS WHICH IS ALSO KNOWN AS
         TEMPERATURE IN CENTIGRADE
AFB    - AIR FORCE BASE
         LUKE AFB IS LUKE AIR FORCE BASE
         DAVIS-MONTHAN IS DAVIS-MONTHAN AIR FORCE BASE
NAS    - NAVAL AIR STATION
         EL CENTRO NAS IS EL CENTRO NAVAL AIR STATION
N/A    - NOT AVAILABLE





USA.gov is the U.S. government's official web portal to all federal, state and local government web resources and services.